sat.trackr.live / text

‹ back to catalog

STARLINK-32924

NORAD 63092 · 2025-037R

PAYLOAD ACTIVE UNKNOWN

§ Identity

Operator
Country
US
Launch date
2025-02-23
Launch site
AFWTR
Launch vehicle
Mass (kg)
RCS (m²)

Purposes: comms

External: N2YO · Heavens-Above · Gunter

§ Orbital elements

Epoch: 2026-09-20T18:09:36.206784Z

Period
94.14 min
Inclination
70.0000°
Eccentricity
0.0001777
Mean motion
15.29590030 rev/d
Perigee alt
475.8 km
Apogee alt
478.3 km
Semi-major
6,855.2 km
B*
6.2515e-4
RAAN
220.1350°
Arg perigee
271.9509°
Mean anomaly
88.1463°
Rev number
8,788

§ Raw data

STARLINK-329241 63092U 25037R   26263.75666906  .00017890  00000+0  62515-3 0  99972 63092  70.0000 220.1350 0001777 271.9509  88.1463 15.29590030 87882

JSON: /api/v1/satellites/63092 · /tle

For live sub-satellite position, see the globe view (requires WebGL).

§ Visibility from observer

Set your observer location to see the next 7 days of passes ≥ 10°. The values pass through the URL so the page stays shareable.

No JS? Fill the form by hand. The geolocation button needs JavaScript.